When you browse on this site, cookies collect data to enhance your experience and personalize the content and advertising you see.
Visit our Privacy Policy to learn more. By continuing to use the site, you agree to this use of cookies and data.
  • In Czech Republic
  • List of Countries
  • For 7 days
  • Water Temperature
  • Weather Map
  • Weather Widgets
  • user-avatar
    Login

    Hourly Weather Graz

    Today, 5 April, Sunday

    Time Temperature Precipitation Wind Pressure Humidity
    00:00 +5°C° 0 mm 1 mps 731 mmHg 80%
    01:00 +5°C° 0 mm 1 mps 731 mmHg 80%
    02:00 +5°C° 0 mm 1 mps 731 mmHg 81%
    03:00 +4°C° 0 mm 1 mps 731 mmHg 81%
    04:00 +4°C° 0 mm 1 mps 731 mmHg 82%
    05:00 +5°C° 0 mm 1 mps 731 mmHg 78%
    06:00 +6°C° 0 mm 1 mps 731 mmHg 75%
    07:00 +7°C° 0 mm 1 mps 732 mmHg 68%
    08:00 +9°C° 0 mm 1 mps 732 mmHg 59%
    09:00 +11°C° 0 mm 1 mps 732 mmHg 51%
    10:00 +13°C° 0 mm 2 mps 732 mmHg 43%
    11:00 +14°C° 0 mm 2 mps 732 mmHg 40%
    12:00 +14°C° 0 mm 2 mps 731 mmHg 38%
    13:00 +15°C° 0 mm 2 mps 731 mmHg 35%
    14:00 +15°C° 0 mm 2 mps 731 mmHg 36%
    15:00 +15°C° 0 mm 2 mps 730 mmHg 38%
    16:00 +15°C° 0 mm 2 mps 730 mmHg 39%
    17:00 +13°C° 0 mm 2 mps 730 mmHg 47%
    18:00 +11°C° 0 mm 1 mps 730 mmHg 55%
    19:00 +9°C° 0 mm 1 mps 730 mmHg 63%
    20:00 +8°C° 0 mm 1 mps 731 mmHg 65%
    21:00 +8°C° 0 mm 1 mps 731 mmHg 67%
    22:00 +7°C° 0 mm 1 mps 732 mmHg 69%
    23:00 +7°C° 0 mm 0 mps 732 mmHg 69%

    Tomorrow, 6 April, Monday

    Time Temperature Precipitation Wind Pressure Humidity
    00:00 +7°C° 0 mm 0 mps 732 mmHg 70%
    01:00 +8°C° 0 mm 0 mps 732 mmHg 71%
    02:00 +7°C° 0 mm 0 mps 732 mmHg 74%
    03:00 +7°C° 0 mm 0 mps 732 mmHg 77%
    04:00 +7°C° 0 mm 0 mps 732 mmHg 80%
    05:00 +7°C° 0 mm 0 mps 732 mmHg 79%
    06:00 +8°C° 0 mm 0 mps 732 mmHg 78%
    07:00 +8°C° 0 mm 0 mps 732 mmHg 77%
    08:00 +11°C° 0 mm 1 mps 732 mmHg 69%
    09:00 +12°C° 0 mm 2 mps 733 mmHg 61%
    10:00 +14°C° 0 mm 2 mps 733 mmHg 54%
    11:00 +14°C° 0 mm 3 mps 733 mmHg 51%
    12:00 +14°C° 0 mm 3 mps 732 mmHg 48%
    13:00 +16°C° 0 mm 3 mps 732 mmHg 45%
    14:00 +16°C° 0 mm 3 mps 732 mmHg 45%
    15:00 +14°C° 0 mm 3 mps 732 mmHg 45%
    16:00 +14°C° 0 mm 3 mps 732 mmHg 45%
    17:00 +12°C° 0 mm 3 mps 732 mmHg 52%
    18:00 +10°C° 0 mm 2 mps 732 mmHg 60%
    19:00 +9°C° 0 mm 1 mps 732 mmHg 67%
    20:00 +8°C° 0 mm 1 mps 733 mmHg 69%
    21:00 +7°C° 0 mm 1 mps 734 mmHg 72%
    22:00 +5°C° 0 mm 0 mps 734 mmHg 74%
    23:00 +6°C° 0 mm 1 mps 734 mmHg 73%

    Day after tomorrow, 7 April, Tuesday

    Time Temperature Precipitation Wind Pressure Humidity
    00:00 +6°C° 0 mm 1 mps 734 mmHg 73%
    01:00 +5°C° 0 mm 1 mps 734 mmHg 72%
    02:00 +5°C° 0 mm 1 mps 734 mmHg 70%
    03:00 +5°C° 0 mm 1 mps 734 mmHg 68%
    04:00 +4°C° 0 mm 1 mps 735 mmHg 66%
    05:00 +5°C° 0 mm 1 mps 735 mmHg 62%
    06:00 +5°C° 0 mm 0 mps 735 mmHg 58%
    07:00 +6°C° 0 mm 0 mps 735 mmHg 54%
    08:00 +9°C° 0 mm 1 mps 735 mmHg 47%
    09:00 +11°C° 0 mm 1 mps 735 mmHg 41%
    10:00 +13°C° 0 mm 1 mps 735 mmHg 34%
    11:00 +14°C° 0 mm 1 mps 735 mmHg 32%
    12:00 +15°C° 0 mm 2 mps 735 mmHg 29%
    13:00 +16°C° 0 mm 2 mps 735 mmHg 27%
    14:00 +16°C° 0 mm 2 mps 734 mmHg 28%
    15:00 +15°C° 0 mm 2 mps 734 mmHg 30%
    16:00 +15°C° 0 mm 2 mps 734 mmHg 31%
    17:00 +13°C° 0 mm 1 mps 734 mmHg 39%
    18:00 +10°C° 0 mm 1 mps 733 mmHg 47%
    19:00 +7°C° 0 mm 0 mps 733 mmHg 55%
    20:00 +6°C° 0 mm 0 mps 734 mmHg 56%
    21:00 +6°C° 0 mm 0 mps 734 mmHg 58%
    22:00 +5°C° 0 mm 0 mps 735 mmHg 59%
    23:00 +5°C° 0 mm 0 mps 734 mmHg 60%

    8 April, Wednesday

    Time Temperature Precipitation Wind Pressure Humidity
    00:00 +5°C° 0 mm 1 mps 734 mmHg 61%
    01:00 +5°C° 0 mm 1 mps 734 mmHg 62%
    02:00 +5°C° 0 mm 1 mps 734 mmHg 63%
    03:00 +4°C° 0 mm 1 mps 734 mmHg 63%
    04:00 +4°C° 0 mm 1 mps 734 mmHg 64%
    05:00 +5°C° 0 mm 1 mps 734 mmHg 60%
    06:00 +6°C° 0 mm 1 mps 734 mmHg 56%
    07:00 +7°C° 0 mm 0 mps 734 mmHg 52%
    08:00 +10°C° 0 mm 1 mps 734 mmHg 45%
    09:00 +13°C° 0 mm 1 mps 733 mmHg 38%
    10:00 +15°C° 0 mm 1 mps 733 mmHg 31%
    11:00 +16°C° 0 mm 1 mps 733 mmHg 30%
    12:00 +17°C° 0 mm 2 mps 732 mmHg 30%
    13:00 +17°C° 0 mm 2 mps 732 mmHg 30%
    14:00 +17°C° 0 mm 2 mps 731 mmHg 32%
    15:00 +17°C° 0 mm 2 mps 731 mmHg 34%
    16:00 +17°C° 0 mm 2 mps 731 mmHg 36%
    17:00 +14°C° 0 mm 1 mps 730 mmHg 45%
    18:00 +12°C° 0 mm 1 mps 730 mmHg 54%
    19:00 +9°C° 0 mm 1 mps 730 mmHg 64%
    20:00 +9°C° 0 mm 1 mps 730 mmHg 65%
    21:00 +8°C° 0 mm 1 mps 730 mmHg 67%
    22:00 +8°C° 0 mm 1 mps 731 mmHg 69%
    23:00 +7°C° 0 mm 1 mps 730 mmHg 70%

    9 April, Thursday

    Time Temperature Precipitation Wind Pressure Humidity
    00:00 +7°C° 0 mm 1 mps 730 mmHg 71%
    01:00 +7°C° 0 mm 1 mps 730 mmHg 73%
    02:00 +6°C° 0 mm 1 mps 730 mmHg 73%
    03:00 +6°C° 0 mm 1 mps 730 mmHg 74%
    04:00 +6°C° 0 mm 1 mps 729 mmHg 75%
    05:00 +7°C° 0 mm 1 mps 729 mmHg 71%
    06:00 +8°C° 0 mm 1 mps 729 mmHg 67%
    07:00 +9°C° 0 mm 1 mps 729 mmHg 63%
    08:00 +12°C° 0 mm 1 mps 729 mmHg 55%
    09:00 +15°C° 0 mm 1 mps 729 mmHg 47%
    10:00 +19°C° 0 mm 1 mps 729 mmHg 39%
    11:00 +19°C° 0 mm 1 mps 729 mmHg 37%
    12:00 +20°C° 0 mm 1 mps 729 mmHg 35%
    13:00 +21°C° 0 mm 1 mps 729 mmHg 33%
    14:00 +21°C° 0 mm 1 mps 729 mmHg 34%
    15:00 +21°C° 0 mm 1 mps 728 mmHg 35%
    16:00 +20°C° 0 mm 1 mps 728 mmHg 36%
    17:00 +18°C° 0 mm 1 mps 728 mmHg 44%
    18:00 +15°C° 0 mm 1 mps 727 mmHg 52%
    19:00 +11°C° 0 mm 0 mps 727 mmHg 60%
    20:00 +11°C° 0 mm 0 mps 728 mmHg 61%
    21:00 +11°C° 0 mm 1 mps 728 mmHg 63%
    22:00 +10°C° 0 mm 1 mps 729 mmHg 64%
    23:00 +10°C° 0 mm 1 mps 729 mmHg 66%

    10 April, Friday

    Time Temperature Precipitation Wind Pressure Humidity
    00:00 +10°C° 0 mm 1 mps 729 mmHg 67%
    01:00 +10°C° 0 mm 1 mps 729 mmHg 69%
    02:00 +9°C° 0 mm 1 mps 729 mmHg 71%
    03:00 +9°C° 0 mm 1 mps 729 mmHg 72%
    04:00 +9°C° 0 mm 1 mps 729 mmHg 74%
    05:00 +10°C° 0 mm 1 mps 729 mmHg 71%
    06:00 +11°C° 0 mm 1 mps 729 mmHg 69%
    07:00 +12°C° 0 mm 1 mps 729 mmHg 67%
    08:00 +14°C° 0 mm 1 mps 729 mmHg 59%
    09:00 +18°C° 0 mm 1 mps 729 mmHg 52%
    10:00 +21°C° 0 mm 1 mps 730 mmHg 44%
    11:00 +21°C° 0 mm 1 mps 729 mmHg 42%
    12:00 +22°C° 0 mm 1 mps 729 mmHg 40%
    13:00 +23°C° 0 mm 1 mps 729 mmHg 39%
    14:00 +22°C° 0 mm 1 mps 729 mmHg 40%
    15:00 +21°C° 0 mm 2 mps 728 mmHg 41%
    16:00 +20°C° 0 mm 2 mps 728 mmHg 42%
    17:00 +18°C° 0 mm 2 mps 728 mmHg 52%
    18:00 +16°C° 0 mm 1 mps 728 mmHg 62%
    19:00 +14°C° 0 mm 1 mps 727 mmHg 72%
    20:00 +13°C° 0 mm 1 mps 728 mmHg 76%
    21:00 +11°C° 0 mm 0 mps 728 mmHg 80%
    22:00 +10°C° 0 mm 0 mps 728 mmHg 84%
    23:00 +10°C° 0 mm 0 mps 728 mmHg 85%
    Show more